Estación de Morza Norte
Ultimos registro cada 15 minutos 44
| N° | Estación | Fecha / Hora | Temperatura | Humedad | Lluvia | Velocidad | Dirección | Radiación | Presion |
| 44 | Morza Norte | 04-05-2026 10:45 | 12,6 | 61 | 0 | 0 | 98 | 84 | 1018,5 |
| 43 | Morza Norte | 04-05-2026 10:30 | 12,3 | 99 | 0 | 0 | 98 | 100 | 1018,6 |
| 42 | Morza Norte | 04-05-2026 10:15 | 11,9 | 63 | 0 | 0 | 122 | 84 | 1018,7 |
| 41 | Morza Norte | 04-05-2026 10:00 | 11,6 | 63 | 0 | 0 | 169 | 72 | 1018,6 |
| 40 | Morza Norte | 04-05-2026 09:45 | 11,2 | 63 | 0 | 0 | 169 | 74 | 1018,4 |
| 39 | Morza Norte | 04-05-2026 09:30 | 10,8 | 99 | 0 | 0 | 169 | 77 | 1018,6 |
| 38 | Morza Norte | 04-05-2026 09:15 | 10,3 | 65 | 0 | 0 | 169 | 49 | 1018,2 |
| 37 | Morza Norte | 04-05-2026 09:00 | 10,1 | 65 | 0 | 0 | 169 | 47 | 1018 |
| 36 | Morza Norte | 04-05-2026 08:45 | 9,8 | 66 | 0 | 0 | 169 | 44 | 1017,8 |
| 35 | Morza Norte | 04-05-2026 08:30 | 9,5 | 99 | 0 | 0 | 169 | 39 | 1017,9 |
| 34 | Morza Norte | 04-05-2026 08:15 | 9,5 | 66 | 0 | 0 | 169 | 23 | 1017,9 |
| 33 | Morza Norte | 04-05-2026 08:00 | 9,3 | 66 | 0 | 0 | 169 | 18 | 1017,9 |
| 32 | Morza Norte | 04-05-2026 07:45 | 9,1 | 65 | 0 | 0 | 169 | 12 | 1017,8 |
| 31 | Morza Norte | 04-05-2026 07:30 | 9,1 | 99 | 0 | 0 | 169 | 0 | 1017,8 |
| 30 | Morza Norte | 04-05-2026 07:15 | 8,9 | 65 | 0 | 0 | 169 | 0 | 1017,7 |
| 29 | Morza Norte | 04-05-2026 07:00 | 8,8 | 65 | 0 | 0 | 169 | 0 | 1017,6 |
| 28 | Morza Norte | 04-05-2026 06:45 | 8,8 | 65 | 0 | 0 | 169 | 0 | 1017,7 |
| 27 | Morza Norte | 04-05-2026 06:30 | 9 | 99 | 0 | 0 | 169 | 0 | 1017,5 |
| 26 | Morza Norte | 04-05-2026 06:15 | 9,1 | 65 | 0 | 0 | 169 | 0 | 1017,4 |
| 25 | Morza Norte | 04-05-2026 06:00 | 9,1 | 65 | 0 | 0 | 169 | 0 | 1017,3 |
| 24 | Morza Norte | 04-05-2026 05:45 | 8,9 | 66 | 0 | 0 | 169 | 0 | 1017,3 |
| 23 | Morza Norte | 04-05-2026 05:30 | 8,8 | 99 | 0 | 0 | 169 | 0 | 1017,2 |
| 22 | Morza Norte | 04-05-2026 05:15 | 8,9 | 66 | 0 | 0 | 169 | 0 | 1017,3 |
| 21 | Morza Norte | 04-05-2026 05:00 | 8,9 | 66 | 0 | 0 | 169 | 0 | 1017,3 |
| 20 | Morza Norte | 04-05-2026 04:45 | 9,1 | 66 | 0 | 0 | 169 | 0 | 1017,1 |
| 19 | Morza Norte | 04-05-2026 04:30 | 9,2 | 66 | 0 | 0 | 169 | 0 | 1017,2 |
| 18 | Morza Norte | 04-05-2026 04:15 | 9,2 | 65 | 0 | 0 | 169 | 0 | 1017,2 |
| 17 | Morza Norte | 04-05-2026 04:00 | 9,3 | 65 | 0 | 0 | 169 | 0 | 1017,3 |
| 16 | Morza Norte | 04-05-2026 03:45 | 9,7 | 64 | 0 | 0 | 169 | 0 | 1017,3 |
| 15 | Morza Norte | 04-05-2026 03:30 | 9,9 | 63 | 0 | 0 | 169 | 0 | 1017,5 |
| 14 | Morza Norte | 04-05-2026 03:15 | 9,9 | 63 | 0 | 0 | 169 | 0 | 1017,7 |
| 13 | Morza Norte | 04-05-2026 03:00 | 10,2 | 63 | 0 | 0 | 169 | 0 | 1017,8 |
| 12 | Morza Norte | 04-05-2026 02:45 | 10,1 | 64 | 0 | 0 | 157 | 0 | 1018,1 |
| 11 | Morza Norte | 04-05-2026 02:30 | 9,9 | 65 | 0 | 0 | 79 | 0 | 1018,1 |
| 10 | Morza Norte | 04-05-2026 02:15 | 9,9 | 65 | 0 | 0 | 79 | 0 | 1018,3 |
| 9 | Morza Norte | 04-05-2026 02:00 | 9,7 | 65 | 0 | 0 | 79 | 0 | 1018,4 |
| 8 | Morza Norte | 04-05-2026 01:45 | 9,9 | 65 | 0 | 0 | 79 | 0 | 1018,5 |
| 7 | Morza Norte | 04-05-2026 01:30 | 9,9 | 66 | 0 | 0 | 78 | 0 | 1018,4 |
| 6 | Morza Norte | 04-05-2026 01:15 | 10,1 | 65 | 0 | 0 | 78 | 0 | 1018,5 |
| 5 | Morza Norte | 04-05-2026 01:00 | 10,2 | 65 | 0 | 0 | 78 | 0 | 1018,6 |
| 4 | Morza Norte | 04-05-2026 00:45 | 10,5 | 64 | 0 | 0 | 78 | 0 | 1018,7 |
| 3 | Morza Norte | 04-05-2026 00:30 | 10,6 | 63 | 0 | 0 | 77 | 0 | 1018,9 |
| 2 | Morza Norte | 04-05-2026 00:15 | 10,5 | 63 | 0 | 0 | 78 | 0 | 1019,2 |
| 1 | Morza Norte | 04-05-2026 00:00 | 10,2 | 65 | 0 | 0 | 68 | 0 | 1019,5 |